User: anonymous   Login
Location: Lake Almanor
(40.2485°N, 121.1442°W)
Time: 18:32:55
(UTC-07:00)
Language:

STARLINK-1090 - Orbit

View from above orbital plane
View from above orbital plane
View from above satellite
View from above satellite

Ground track
Ground track

The orbit data is extracted from the following two-line orbital elements,

1 44968U 20001BG  20093.91667824 -.00020720  00000-0 -22116-3 0  9999
2 44968  53.0005 326.4571 0001338  62.9226  89.4963 15.62737196 13668
Epoch (UTC): 02 April 2020 22:00:01
Eccentricity: 0.0001338
inclination: 53.0005°
perigee height: 379 km
apogee height: 380 km
right ascension of ascending node: 326.4571°
argument of perigee: 62.9226°
revolutions per day: 15.62737196
mean anomaly at epoch: 89.4963°
orbit number at epoch: 1366

The dashed part of the orbit path shows where the satellite is in the earth's shadow,  

DLR